Regional Weather Roundup
Issued by NWS

Current Version | Previous Version | Text Only | Print | Product List | Glossary On
Versions: 1 2 3 4 5 6 7 8 9 10 11 12 13 14 15 16 17 18 19 20 21 22 23 24 25 26 27 28 29 30 31 32 33 34 35 36 37 38 39 40 41 42 43 44 45 46 47 48 49 50
000
ASUS43 KMPX 232210
RWRMN
WEATHER ROUNDUP FOR MINNESOTA
NATIONAL WEATHER SERVICE TWIN CITIES/CHANHASSEN MN
500 PM CDT MON OCT 23 2017


NOTE: "FAIR" INDICATES FEW OR NO CLOUDS BELOW 12,000 FEET WITH NO
SIGNIFICANT WEATHER AND/OR OBSTRUCTIONS TO VISIBILITY. N/A MEANS
CURRENT SKY AND/OR WEATHER CONDITIONS ARE NOT AVAILABLE.

MNZ060>063-068>070-232300-
   Twin Cities Metro

CITY           SKY/WX    TMP DP  RH WIND       PRES   REMARKS
TWIN CITIES    CLOUDY    51  41  68 NW21G32   29.82R
ST PAUL        CLOUDY    50  42  74 NW21G38   29.82R
CRYSTAL        CLOUDY    50  37  61 NW25G33   29.82R
BLAINE         CLOUDY    52  41  66 NW18G30   29.81R
LAKEVILLE      CLOUDY    48  41  76 NW16G24   29.82R
EDEN PRAIRIE   CLOUDY    51  38  60 NW25G35   29.81R
SOUTH ST PAUL  CLOUDY    51  40  65 NW15G25   29.80R
LAKE ELMO      CLOUDY    50  41  71 NW22G29   29.80R
$$
MNZ001>005-007-008-013>017-022>024-027-028-232300-
   Northwest Minnesota

CITY           SKY/WX    TMP DP  RH WIND       PRES   REMARKS
BEMIDJI        SUNNY     44  27  49 NW16      29.90S
HALLOCK        MOSUNNY   45  28  53 N21G33    30.02R
ROSEAU         CLOUDY    45  30  57 N20G26    29.97R
WARROAD        PTSUNNY   43  32  65 NW15      29.96R
THIEF RVR FALL SUNNY     46  29  51 N24G31    29.98R
CROOKSTON      SUNNY     48  34  57 N21G28    29.99R
FOSSTON        SUNNY     46  30  53 NW15G23   29.96R
DETROIT LAKES  SUNNY     50  32  50 N20G29    29.95R
MOORHEAD       SUNNY     55  27  33 NW24G33   29.97R
PARK RAPIDS    SUNNY     48  30  49 NW18G29   29.89S
MAHNOMEN       FAIR      47  31  52 N18G25    29.96R
$$
MNZ006-009>011-018-025>026-232300-
   North Central Minnesota

CITY           SKY/WX    TMP DP  RH WIND       PRES   REMARKS
BAUDETTE       CLOUDY    45  32  60 NW18G29   29.90R
FLAG ISLAND    LGT RAIN  43  37  81 NW23      29.93R
INTL FALLS     CLOUDY    44  35  70 NW20G26   29.84R
WASKISH        CLOUDY    46  34  61 NW14G24   29.90R
BIG FORK       CLOUDY    43  39  87 NW6       29.84R
LONGVILLE      CLOUDY    46  28  49 NW8G18    29.85S
GRAND RAPIDS   LGT RAIN  43  39  86 NW15      29.84R
CRANE LAKE     CLOUDY    43  39  87 N13G20    29.80R
ORR            CLOUDY    45  37  76 NW14G20   29.78R
COOK           CLOUDY    45  41  87 NW8G16    29.79R
WALKER         FAIR      46  29  52 NW17G25   29.88R
$$
MNZ012-019>021-037-232300-
   Northeast Minnesota

CITY           SKY/WX    TMP DP  RH WIND       PRES   REMARKS
DULUTH         CLOUDY    48  42  80 NW18G26   29.73R
ELY            CLOUDY    46  41  81 NW8G22    29.75R
HIBBING        CLOUDY    44  41  89 NW21G28   29.78R
EVELETH        DRIZZLE   47  44  92 NW18      29.78R
DULUTH HARBOR  MOCLDY    54  45  71 NW22      29.74R
TWO HARBORS    CLEAR     55  45  67 W8G17     29.69R
SILVER BAY     CLEAR     55  43  62 NW8G18    29.68R
GRAND MARAIS     N/A     51  43  74 W5        29.67R
G MARAIS ARPRT MOCLDY    54  39  58 W7        29.69R
$$
MNZ029>031-032-039>041-046>048-054>057-064-232300-
   West Central Minnesota

CITY           SKY/WX    TMP DP  RH WIND       PRES   REMARKS
FERGUS FALLS   SUNNY     54  28  37 NW26G35   29.95R
WHEATON        MOSUNNY   55  27  33 NW24G31   29.98S
MORRIS         SUNNY     54  28  37 N23G33    29.94R
ALEXANDRIA     MOSUNNY   52  32  46 N14G30    29.92F
ELBOW LAKE     FAIR      52  31  44 W22G33    29.95R
WADENA         SUNNY     48  30  49 NW22G31   29.90S
GLENWOOD       PTSUNNY   52  34  50 NW20G25   29.91F
APPLETON       PTSUNNY   55  25  30 N18G28    29.95R
BENSON         CLOUDY    55  27  33 N24G35    29.95S
ORTONVILLE     MOSUNNY   55  27  33 NW20G33   29.97R
MADISON        PTSUNNY   57  27  30 NW30G39   29.96S
WILLMAR        FAIR      52  36  54 NW18G28   29.93S
$$
MNZ033>034-036-042>043-049>051-058-059-232300-
   Central Minnesota

CITY           SKY/WX    TMP DP  RH WIND       PRES   REMARKS
ST CLOUD       CLOUDY    48  33  56 NW20G30   29.85R
SAUK CENTRE    CLOUDY    49  31  50 NW23G31   29.90R
PAYNESVILLE    CLOUDY    50  32  48 NW18G26   29.89S
AITKIN         CLOUDY    45  36  70 NW9G22    29.82R
PINE RIVER     CLOUDY    46  30  53 NW14G23   29.89F
BRAINERD       CLOUDY    48  31  51 NW18G26   29.85F
STAPLES        CLOUDY    46  27  46 NW16G22   29.88S
LONG PRAIRIE   CLOUDY    46  32  57 W22G30    29.90R
LITTLE FALLS   CLOUDY    46  19  34 NW13G18   29.86F
LITCHFIELD     CLOUDY    50  34  53 NW16      29.88S
BUFFALO        CLOUDY    49  35  57 NW14G29   29.86R
MAPLE LAKE     CLOUDY    49  37  61 NW13G28   29.87R
HUTCHINSON     CLOUDY    50  33  51 W15G25    29.88S
$$
MNZ037-044-045-052-053-232300-
   East Central Minnesota

CITY           SKY/WX    TMP DP  RH WIND       PRES   REMARKS
PRINCETON      CLOUDY    48  36  61 NW16G25   29.85R
MORA           CLOUDY    46  37  71 NW20      29.83R
CAMBRIDGE      CLOUDY    50  39  66 NW16G24   29.82R
RUSH CITY      CLOUDY    49  41  71 NW9G17    29.80R
MOOSE LAKE     CLOUDY    46  41  81 NW13G18   29.77R
HINCKLEY       CLOUDY    50  41  71 NW17G28   29.79R
CLOQUET        CLOUDY    46  41  81 NW12G24   29.76R HAZE
MCGREGOR       CLOUDY    45  37  76 NW14G25   29.82R
$$
MNZ071>073-080-081-089-090-097-098-232300-
   Southwest Minnesota

CITY           SKY/WX    TMP DP  RH WIND       PRES   REMARKS
MONTEVIDEO     CLOUDY    55  28  35 N15G24    29.95S
GRANITE FALLS  PTSUNNY   55  34  44 NW14G23   29.96S
CANBY          PTSUNNY   56  26  31 W25G37    29.99R
MARSHALL       CLOUDY    54  27  35 N29G35    29.94F
REDWOOD FALLS  CLOUDY    52  31  44 NW18G26   29.93R
OLIVIA         CLOUDY    52  34  50 NW15G26   29.92R
PIPESTONE      PTSUNNY   52  27  37 N20G32    29.99S
WORTHINGTON    CLOUDY    52  30  43 NW24G31   29.98S
JACKSON        CLOUDY    48  34  57 NW20G28   29.95S
TRACY          CLOUDY    53  32  45 NW16      29.96S
SLAYTON        CLOUDY    52  30  42 NW22G35   29.98R
$$
MNZ065>067-074>077-082>085-091>093-232300-
   South Central Minnesota

CITY           SKY/WX    TMP DP  RH WIND       PRES   REMARKS
NEW ULM          N/A     50  32  50 NW22G30   29.90R
ST JAMES       PTSUNNY   50  34  53 NW26G33   29.92R
FAIRMONT       CLOUDY    49  35  58 NW24G30   29.91R
GLENCOE        CLOUDY    51  31  45 NW18G35   29.86R
FARIBAULT      CLOUDY    48  43  81 NW13G21   29.84R
OWATONNA       CLOUDY    48  41  76 NW21      29.83S
WASECA         CLOUDY    46  39  76 NW15G28   29.86S
$$
MNZ078>079-086>088-094>096-232300-
   Southeast Minnesota

CITY           SKY/WX    TMP DP  RH WIND       PRES   REMARKS
ROCHESTER      PTSUNNY   52  39  61 NW23G31   29.79R
RED WING       CLOUDY    55  36  47 NW10G21   29.76R
STANTON        CLOUDY    51  41  70 NW18G26   29.80R
DODGE CENTER   CLOUDY    48  39  71 W20       29.80R
WINONA         PTSUNNY   59  39  47 NW14G25   29.73R
AUSTIN         CLOUDY    48  39  71 NW23G31   29.82R
PRESTON        PTSUNNY   51  37  57 NW22G35   29.77R
$$
ABBREVIATIONS USED IN REMARKS
   TC - TEMPERATURES IN CELSIUS
  WCI - WIND CHILL INDEX
   HX - HEAT INDEX
  VSB - VISIBILITY
$$




USA.gov is the U.S. government's official web portal to all federal, state and local government web resources and services.